GRARBER Weather Reports


time (UTC)temp
F
wind
direction
speed
knots
gust
knots
rain 1hr
in
rain 24hr
in
rain mn
in
humidity
%
barometer
mb
20260505121655 61 120 2.6 0.0 0.00 0.00 0.00 44
20260505111655 64 340 2.6 8.7 0.00 0.00 0.00 39
20260505101655 63 330 5.2 11.3 0.00 0.00 0.00 39
20260505091655 61 340 6.1 0.0 0.00 0.00 0.00 41
20260505081656 59 330 4.3 0.0 0.00 0.00 0.00 47
20260505071654 57 320 1.7 0.0 0.00 0.00 0.00 54
20260505061656 55 330 2.6 0.0 0.00 0.00 0.00 54
20260505051655 54 310 1.7 0.0 0.00 0.00 0.00 54
20260505041655 52 210 11.3 0.0 0.00 0.00 0.00 57
20260505031655 54 190 7.0 0.0 0.00 0.00 0.00 54
20260505021655 52 140 6.1 0.0 0.00 0.00 0.00 57
20260505011656 52 230 7.8 0.0 0.00 0.00 0.00 57
20260505001655 54 150 10.4 0.0 0.00 0.00 0.00 54
20260504231655 54 150 11.3 0.0 0.00 0.00 0.00 50
20260504221655 54 130 7.8 0.0 0.00 0.00 0.00 50
20260504211654 54 80 8.7 0.0 0.00 0.00 0.00 62
20260504201654 55 70 6.1 0.0 0.00 0.00 0.00 58
20260504191655 55 50 6.1 0.0 0.00 0.00 0.00 58
20260504181655 55 30 5.2 0.0 0.00 0.00 0.00 58
20260504171656 57 20 7.8 0.0 0.00 0.00 0.00 50